EW2288 Weather Reports


Display with metric or nautical units.
time (UTC)temp
F
wind
direction
speed
MPH
gust
MPH
rain 1hr
in
rain 24hr
in
rain mn
in
humidity
%
barometer
mb
20260506205015 35 180 2.0 5.0 0.00 0.00 0.00 87 1009.1
20260506204016 35 0.0 2.0 0.00 0.00 0.00 86 1009.1
20260506203015 35 158 1.0 4.0 0.00 0.00 0.00 86 1009.2
20260506202018 36 158 1.0 3.0 0.00 0.00 0.00 86 1009.0
20260506201018 36 158 2.0 4.0 0.00 0.00 0.00 85 1009.1
20260506200017 36 0.0 3.0 0.00 0.00 0.00 84 1009.1
20260506195022 37 158 2.0 4.0 0.00 0.00 0.00 84 1009.0
20260506194057 38 180 1.0 4.0 0.00 0.00 0.00 83 1009.0
20260506193017 38 158 1.0 3.0 0.00 0.00 0.00 83 1008.9
20260506192017 38 135 1.0 4.0 0.00 0.00 0.00 82 1008.8
20260506191017 39 158 2.0 5.0 0.00 0.00 0.00 80 1008.8
20260506190018 40 180 2.0 5.0 0.00 0.00 0.00 79 1008.8
20260506185017 39 180 1.0 4.0 0.00 0.00 0.00 78 1008.7
20260506184017 39 158 4.0 9.0 0.00 0.00 0.00 77 1008.5
20260506183017 41 248 3.0 7.0 0.00 0.00 0.00 77 1008.5
20260506182017 40 180 1.0 4.0 0.00 0.00 0.00 79 1008.4
20260506181017 39 158 4.0 7.0 0.00 0.00 0.00 79 1008.3
20260506180017 39 158 4.0 7.0 0.00 0.00 0.00 80 1008.3
20260506175037 39 158 3.0 7.0 0.00 0.00 0.00 79 1008.3
20260506174017 39 158 2.0 7.0 0.00 0.00 0.00 76 1008.2
20260506173017 41 135 4.0 11.0 0.00 0.00 0.00 71 1008.2
20260506172017 45 338 2.0 6.0 0.00 0.00 0.00 61 1008.2
20260506171017 45 293 3.0 10.0 0.00 0.00 0.00 62 1007.8
20260506170017 44 315 5.0 11.0 0.00 0.00 0.00 62 1007.7
20260506165017 43 315 3.0 8.0 0.00 0.00 0.00 64 1007.7
20260506164017 42 270 3.0 8.0 0.00 0.00 0.00 64 1007.7
20260506163017 42 293 1.0 3.0 0.00 0.00 0.00 63 1007.7
20260506162017 43 293 4.0 8.0 0.00 0.00 0.00 61 1007.8
20260506161017 43 293 4.0 8.0 0.00 0.00 0.00 61 1007.6
20260506160017 44 315 4.0 10.0 0.00 0.00 0.00 61 1007.6
20260506155017 44 338 5.0 11.0 0.00 0.01 0.00 60 1007.6
20260506154037 44 338 4.0 11.0 0.00 0.01 0.00 59 1007.5
20260506153017 44 315 4.0 10.0 0.00 0.01 0.00 59 1007.5
20260506152017 44 338 3.0 9.0 0.00 0.01 0.00 58 1007.6
20260506151017 45 0 4.0 9.0 0.00 0.01 0.00 57 1007.6
20260506150037 45 23 3.0 8.0 0.00 0.01 0.00 59 1007.6
20260506145017 44 45 3.0 8.0 0.00 0.01 0.00 62 1007.7
20260506144017 44 23 3.0 10.0 0.00 0.01 0.00 66 1007.8
20260506143017 43 0 2.0 5.0 0.00 0.01 0.00 67 1007.8
20260506142017 43 315 1.0 4.0 0.00 0.01 0.00 71 1007.9
20260506141017 42 338 2.0 4.0 0.00 0.02 0.00 75 1007.9
20260506140017 41 270 3.0 8.0 0.00 0.02 0.00 73 1007.9
20260506135037 41 293 4.0 8.0 0.00 0.02 0.00 72 1007.9
20260506134017 41 45 2.0 6.0 0.00 0.02 0.00 71 1007.8
20260506133017 41 23 2.0 5.0 0.00 0.02 0.00 69 1007.8
20260506132036 42 338 3.0 6.0 0.00 0.02 0.00 69 1007.8
20260506131037 42 45 3.0 8.0 0.00 0.02 0.00 69 1007.6
20260506130016 44 338 4.0 10.0 0.00 0.02 0.00 68 1007.7
20260506125016 44 270 2.0 9.0 0.00 0.02 0.00 68 1007.7
20260506124016 44 315 3.0 12.0 0.00 0.02 0.00 60 1007.7
20260506123017 45 225 3.0 10.0 0.00 0.02 0.00 53 1007.5
20260506122036 45 270 4.0 8.0 0.00 0.02 0.00 53 1007.5
20260506121017 45 248 5.0 11.0 0.00 0.02 0.00 51 1007.5
20260506120036 45 248 5.0 14.0 0.00 0.02 0.00 52 1007.5
20260506115016 45 225 2.0 7.0 0.00 0.02 0.00 54 1007.4
20260506114016 45 248 4.0 9.0 0.00 0.02 0.00 53 1007.4
20260506113016 45 270 4.0 8.0 0.00 0.02 0.00 51 1007.3
20260506112016 45 248 4.0 16.0 0.00 0.02 0.00 51 1007.4
20260506111036 45 248 3.0 9.0 0.00 0.02 0.00 52 1007.4
20260506110036 44 270 4.0 9.0 0.00 0.02 0.00 52 1007.3
20260506105017 44 270 3.0 10.0 0.00 0.02 0.00 51 1007.3
20260506104016 44 270 5.0 14.0 0.00 0.02 0.00 50 1007.3
20260506103037 43 248 4.0 11.0 0.00 0.02 0.00 50 1007.2
20260506102016 44 203 2.0 6.0 0.00 0.02 0.00 49 1007.2
20260506101036 44 270 4.0 12.0 0.00 0.02 0.00 49 1007.2
20260506100016 44 248 3.0 8.0 0.00 0.02 0.00 50 1007.2
20260506095016 44 248 3.0 8.0 0.00 0.02 0.00 49 1007.2
20260506094016 44 270 3.0 14.0 0.00 0.02 0.00 51 1007.1
20260506093016 44 203 1.0 4.0 0.00 0.02 0.00 51 1007.1
20260506092016 43 225 2.0 7.0 0.00 0.02 0.00 53 1007.1
20260506091036 43 248 2.0 9.0 0.00 0.02 0.00 54 1007.2
20260506090016 42 270 3.0 7.0 0.00 0.02 0.00 54 1007.2
20260506085016 42 248 3.0 6.0 0.00 0.02 0.00 55 1007.2
20260506084016 43 225 2.0 9.0 0.00 0.02 0.00 54 1007.2
20260506083016 43 225 2.0 5.0 0.00 0.02 0.00 54 1007.2
20260506082016 43 293 1.0 4.0 0.00 0.02 0.00 53 1007.2
20260506081016 43 225 3.0 8.0 0.00 0.02 0.00 53 1007.1
20260506073016 41 225 2.0 7.0 0.00 0.03 0.00 56 1007.2
20260506072016 41 248 2.0 5.0 0.00 0.04 0.00 59 1007.2
20260506071016 40 203 1.0 5.0 0.00 0.04 0.00 62 1007.1
20260506062016 38 225 2.0 7.0 0.00 0.09 0.00 71 1007.0
20260506061016 37 225 1.0 5.0 0.00 0.09 0.00 74 1007.0
20260506051016 33 0.0 2.0 0.00 0.10 0.00 83 1006.9
20260506045015 32 158 1.0 5.0 0.00 0.10 0.00 84 1006.8
20260506044015 32 158 1.0 3.0 0.00 0.10 0.00 85 1006.8
20260506043015 32 158 2.0 5.0 0.00 0.10 0.00 85 1006.7
20260506042016 32 158 2.0 4.0 0.00 0.10 0.00 85 1006.8
20260506041016 31 158 2.0 8.0 0.00 0.10 0.00 86 1006.7
20260506040036 31 158 1.0 4.0 0.00 0.10 0.00 86 1006.7
20260506035018 31 158 1.0 4.0 0.00 0.10 0.00 86 1006.7
20260506034017 30 158 2.0 6.0 0.00 0.10 0.00 86 1006.6
20260506033038 30 158 1.0 4.0 0.00 0.10 0.00 86 1006.6
20260506032017 30 158 1.0 4.0 0.00 0.10 0.00 86 1006.6
20260506031017 30 180 1.0 4.0 0.00 0.10 0.00 86 1006.7
20260506030017 30 0.0 0.0 0.00 0.10 0.00 85 1006.7
20260506025037 30 0.0 2.0 0.00 0.10 0.00 85 1006.7
20260506024017 30 158 1.0 2.0 0.00 0.10 0.00 85 1006.7
20260506023017 30 158 1.0 5.0 0.00 0.10 0.00 85 1006.6
20260506022017 30 0.0 2.0 0.00 0.10 0.00 85 1006.6
20260506021017 30 135 1.0 4.0 0.00 0.10 0.00 85 1006.7
20260506020017 30 158 2.0 5.0 0.00 0.10 0.00 85 1006.7
20260506015017 30 158 2.0 5.0 0.00 0.10 0.00 84 1006.7
20260506014017 31 158 1.0 3.0 0.00 0.10 0.00 84 1006.7
20260506013017 31 158 1.0 5.0 0.00 0.10 0.00 84 1006.7
20260506012017 31 158 1.0 4.0 0.00 0.10 0.00 84 1006.6
20260506011017 31 158 2.0 7.0 0.00 0.10 0.00 84 1006.6
20260506010037 31 158 1.0 4.0 0.00 0.10 0.00 83 1006.6
20260506005017 31 180 1.0 4.0 0.00 0.10 0.00 83 1006.7
20260506004017 31 180 1.0 4.0 0.00 0.10 0.00 83 1006.6
20260506003017 31 180 1.0 4.0 0.00 0.10 0.00 82 1006.6
20260506002017 31 135 2.0 6.0 0.00 0.10 0.00 82 1006.6
20260506001017 31 180 2.0 5.0 0.00 0.10 0.00 82 1006.6
20260506000017 31 158 1.0 4.0 0.00 0.10 0.00 83 1006.6
20260505235017 31 158 2.0 4.0 0.00 0.10 0.00 83 1006.5
20260505234017 31 180 1.0 3.0 0.00 0.10 0.00 83 1006.4
20260505233037 31 158 1.0 4.0 0.00 0.10 0.00 83 1006.3
20260505232017 31 0.0 0.0 0.00 0.10 0.00 83 1006.2
20260505231017 31 0.0 2.0 0.00 0.10 0.00 83 1006.3
20260505230017 31 0.0 1.0 0.00 0.10 0.00 83 1006.2
20260505225017 32 0.0 2.0 0.00 0.10 0.00 82 1006.3
20260505224017 32 158 1.0 5.0 0.00 0.10 0.00 82 1006.3
20260505223017 32 0.0 4.0 0.00 0.10 0.00 82 1006.3
20260505222017 32 0.0 1.0 0.00 0.10 0.00 82 1006.4
20260505221017 32 0.0 3.0 0.00 0.10 0.00 82 1006.3
20260505220017 32 0.0 2.0 0.00 0.10 0.10 82 1006.3
20260505215016 32 158 1.0 4.0 0.00 0.10 0.10 83 1006.3
20260505214016 32 180 1.0 2.0 0.00 0.10 0.10 82 1006.3
20260505213016 33 0.0 3.0 0.00 0.10 0.10 81 1006.2
20260505212016 33 0.0 0.0 0.00 0.10 0.10 80 1006.2
20260505211016 34 0.0 0.0 0.00 0.10 0.10 79 1006.2
20260505210016 34 0.0 0.0 0.00 0.10 0.10 79 1006.2